TimeCST,TemperatureF,Dew PointF,Humidity,Sea Level PressureIn,VisibilityMPH,Wind Direction,Wind SpeedMPH,Gust SpeedMPH,PrecipitationIn,Events,Conditions,WindDirDegrees,DateUTC
12:15 AM,41.0,41.0,100,29.80,0.2,West,3.5,-,N/A,Fog,Fog,270,2012-12-02 06:15:00
12:35 AM,41.0,41.0,100,29.80,0.5,West,4.6,-,N/A,Fog,Fog,270,2012-12-02 06:35:00
12:55 AM,41.0,41.0,100,29.81,0.8,West,4.6,-,N/A,,Overcast,280,2012-12-02 06:55:00
1:15 AM,41.0,41.0,100,29.81,1.5,WNW,3.5,-,N/A,,Overcast,290,2012-12-02 07:15:00
1:35 AM,41.0,41.0,100,29.81,1.2,Calm,Calm,-,N/A,,Overcast,0,2012-12-02 07:35:00
1:55 AM,41.0,41.0,100,29.81,1.2,WNW,3.5,-,N/A,,Overcast,300,2012-12-02 07:55:00
2:15 AM,41.0,41.0,100,29.80,1.5,Calm,Calm,-,N/A,,Overcast,0,2012-12-02 08:15:00
2:35 AM,41.0,41.0,100,29.83,1.2,WNW,4.6,-,N/A,,Overcast,290,2012-12-02 08:35:00
2:55 AM,41.0,41.0,100,29.83,1.5,Calm,Calm,-,N/A,,Overcast,0,2012-12-02 08:55:00
3:15 AM,41.0,41.0,100,29.83,2.0,WNW,3.5,-,N/A,,Overcast,290,2012-12-02 09:15:00
3:35 AM,41.0,39.2,93,29.84,3.0,NW,4.6,-,N/A,,Overcast,310,2012-12-02 09:35:00
3:55 AM,39.2,37.4,93,29.83,3.0,WNW,3.5,-,N/A,,Overcast,300,2012-12-02 09:55:00
4:15 AM,39.2,37.4,93,29.84,3.0,NW,4.6,-,N/A,,Overcast,310,2012-12-02 10:15:00
4:35 AM,37.4,37.4,100,29.85,3.0,WNW,5.8,-,N/A,,Overcast,300,2012-12-02 10:35:00
4:55 AM,37.4,37.4,100,29.85,3.0,NW,5.8,-,N/A,,Overcast,320,2012-12-02 10:55:00
5:15 AM,37.4,37.4,100,29.87,4.0,NW,8.1,-,N/A,,Overcast,320,2012-12-02 11:15:00
5:35 AM,37.4,37.4,100,29.87,3.0,NNW,4.6,-,N/A,,Overcast,340,2012-12-02 11:35:00
5:55 AM,37.4,35.6,93,29.88,4.0,NNW,3.5,-,N/A,,Overcast,340,2012-12-02 11:55:00
6:15 AM,37.4,35.6,93,29.89,4.0,NW,8.1,-,N/A,,Overcast,320,2012-12-02 12:15:00
6:35 AM,35.6,35.6,100,29.91,4.0,NW,4.6,-,N/A,,Overcast,320,2012-12-02 12:35:00
6:55 AM,35.6,35.6,100,29.91,4.0,NNW,6.9,-,N/A,,Overcast,340,2012-12-02 12:55:00
7:15 AM,35.6,35.6,100,29.93,4.0,NNW,4.6,-,N/A,,Overcast,340,2012-12-02 13:15:00
7:35 AM,35.6,35.6,100,29.93,4.0,North,4.6,-,N/A,,Overcast,360,2012-12-02 13:35:00
7:55 AM,35.6,33.8,93,29.94,4.0,NNW,5.8,-,N/A,,Overcast,330,2012-12-02 13:55:00
8:15 AM,35.6,33.8,93,29.94,3.0,NW,8.1,-,N/A,,Overcast,310,2012-12-02 14:15:00
8:35 AM,35.6,35.6,100,29.95,2.5,NNW,4.6,-,N/A,,Overcast,330,2012-12-02 14:35:00
8:55 AM,35.6,33.8,93,29.95,3.0,NNE,5.8,-,N/A,,Overcast,20,2012-12-02 14:55:00
9:15 AM,35.6,33.8,93,29.97,3.0,North,4.6,-,N/A,,Overcast,10,2012-12-02 15:15:00
9:35 AM,35.6,33.8,93,29.97,3.0,North,5.8,-,N/A,,Overcast,10,2012-12-02 15:35:00
10:15 AM,35.6,33.8,93,29.99,4.0,Calm,Calm,-,N/A,,Overcast,0,2012-12-02 16:15:00
10:35 AM,35.6,33.8,93,29.98,3.0,NNE,4.6,-,N/A,,Overcast,20,2012-12-02 16:35:00
10:55 AM,35.6,33.8,93,29.98,3.0,Calm,Calm,-,N/A,,Overcast,0,2012-12-02 16:55:00
11:15 AM,35.6,33.8,93,29.99,3.0,Calm,Calm,-,N/A,,Overcast,0,2012-12-02 17:15:00
11:55 AM,35.6,33.8,93,29.98,4.0,NW,3.5,-,N/A,,Overcast,320,2012-12-02 17:55:00
12:15 PM,35.6,33.8,93,29.98,4.0,Calm,Calm,-,N/A,,Overcast,0,2012-12-02 18:15:00
12:55 PM,35.6,33.8,93,29.98,3.0,Calm,Calm,-,N/A,,Overcast,0,2012-12-02 18:55:00
1:15 PM,35.6,33.8,93,29.97,3.0,Calm,Calm,-,N/A,,Overcast,0,2012-12-02 19:15:00
1:35 PM,35.6,33.8,93,29.97,3.0,Calm,Calm,-,N/A,,Overcast,0,2012-12-02 19:35:00
1:55 PM,35.6,33.8,93,29.98,3.0,Calm,Calm,-,N/A,,Overcast,0,2012-12-02 19:55:00
2:15 PM,35.6,33.8,93,29.98,3.0,Calm,Calm,-,N/A,,Overcast,0,2012-12-02 20:15:00
2:35 PM,35.6,33.8,93,29.98,3.0,Calm,Calm,-,N/A,,Overcast,0,2012-12-02 20:35:00
2:55 PM,35.6,35.6,100,29.98,3.0,Calm,Calm,-,N/A,,Overcast,0,2012-12-02 20:55:00
3:15 PM,35.6,35.6,100,29.99,3.0,Calm,Calm,-,N/A,,Overcast,0,2012-12-02 21:15:00
3:35 PM,35.6,35.6,100,30.00,3.0,Calm,Calm,-,N/A,,Overcast,0,2012-12-02 21:35:00
3:55 PM,35.6,35.6,100,30.00,3.0,WSW,4.6,-,N/A,,Overcast,250,2012-12-02 21:55:00
4:15 PM,35.6,33.8,93,30.01,5.0,Calm,Calm,-,N/A,,Overcast,0,2012-12-02 22:15:00
4:55 PM,35.6,35.6,100,30.00,4.0,Calm,Calm,-,N/A,,Overcast,0,2012-12-02 22:55:00
5:35 PM,35.6,35.6,100,30.01,3.0,South,3.5,-,N/A,,Overcast,190,2012-12-02 23:35:00
6:15 PM,35.6,35.6,100,30.00,2.5,Calm,Calm,-,N/A,,Overcast,0,2012-12-03 00:15:00
6:35 PM,35.6,35.6,100,30.00,2.5,Calm,Calm,-,N/A,,Overcast,0,2012-12-03 00:35:00
7:15 PM,35.6,35.6,100,30.01,1.8,SSE,4.6,-,N/A,,Overcast,150,2012-12-03 01:15:00
7:55 PM,35.6,33.8,93,30.00,1.0,SSE,6.9,-,N/A,,Overcast,150,2012-12-03 01:55:00
8:15 PM,33.8,33.8,100,30.00,0.8,South,4.6,-,N/A,,Overcast,170,2012-12-03 02:15:00
8:35 PM,33.8,33.8,100,30.01,0.8,SSE,4.6,-,N/A,,Overcast,150,2012-12-03 02:35:00
8:55 PM,33.8,33.8,100,30.01,0.5,Calm,Calm,-,N/A,Fog,Fog,0,2012-12-03 02:55:00
9:15 PM,33.8,33.8,100,30.00,0.5,SE,4.6,-,N/A,Fog,Fog,140,2012-12-03 03:15:00
9:35 PM,33.8,33.8,100,30.00,0.5,South,5.8,-,N/A,Fog,Fog,170,2012-12-03 03:35:00
9:55 PM,33.8,33.8,100,30.00,0.5,SSE,6.9,-,N/A,Fog,Fog,150,2012-12-03 03:55:00
10:15 PM,33.8,33.8,100,30.00,0.5,SSE,4.6,-,N/A,Fog,Fog,160,2012-12-03 04:15:00
10:55 PM,35.6,35.6,100,29.98,0.5,SSE,8.1,-,N/A,Fog,Fog,160,2012-12-03 04:55:00
11:15 PM,35.6,35.6,100,29.97,0.5,SSE,9.2,-,N/A,Fog,Fog,150,2012-12-03 05:15:00
11:35 PM,35.6,35.6,100,29.98,0.5,SSE,5.8,-,N/A,Fog,Fog,150,2012-12-03 05:35:00
11:55 PM,35.6,35.6,100,29.97,0.5,SE,6.9,-,N/A,Fog,Fog,140,2012-12-03 05:55:00